Location: Ch�ze
(42.9000°N, 0.0333°W)
Time: 00:12:46
(UTC+00:00)

CZ-4B R/B - Pass Details

Date: 24 January 2021
Orbit: 809 x 882 km, 99.1° (Epoch: 24 February)

Event Time Altitude Azimuth Distance (km) Brightness Sun altitude
Rises 17:22:10 0° 161° (SSE) 3,410 6.4 -4.1°
Reaches altitude 10° 17:24:30 10° 160° (SSE) 2,488 5.7 -4.5°
Maximum altitude 17:30:02 81° 74° (ENE) 885 3.3 -5.4°
Drops below altitude 10° 17:35:43 10° 348° (NNW) 2,541 5.6 -6.4°
Sets 17:38:07 0° 347° (NNW) 3,488 6.3 -6.8°
